This is the latest recevied weather packets stored in our database for station/object W5CRT. If no packets are shown the sender has not sent any weather packets the latest 10 day(s).
| Time | Temp. | Humidity | Pressure | Rain* | Wind** | Luminosity | Snow |
|---|---|---|---|---|---|---|---|
| 1777948937 | 23.33° C | 68% | 1004.7 hPa | 0 mm | - | 0 W/m² | - |
| 1777948635 | 23.33° C | 67% | 1004.7 hPa | 0 mm | - | 0 W/m² | - |
| 1777948332 | 23.33° C | 67% | 1004.7 hPa | 0 mm | - | 0 W/m² | - |
| 1777948029 | 23.33° C | 67% | 1004.6 hPa | 0 mm | - | 0 W/m² | - |
| 1777947726 | 23.33° C | 66% | 1004.5 hPa | 0 mm | - | 0 W/m² | - |
| 1777947423 | 23.33° C | 66% | 1004.5 hPa | 0 mm | - | 0 W/m² | - |
| 1777947120 | 23.33° C | 66% | 1004.4 hPa | 0 mm | - | 0 W/m² | - |
| 1777946815 | 23.89° C | 66% | 1004.6 hPa | 0 mm | - | 0 W/m² | - |
| 1777946511 | 23.89° C | 65% | 1004.6 hPa | 0 mm | - | 0 W/m² | - |
| 1777946208 | 23.89° C | 65% | 1004.6 hPa | 0 mm | - | 0 W/m² | - |
| 1777945905 | 23.89° C | 64% | 1004.5 hPa | 0 mm | - | 0 W/m² | - |
| 1777945602 | 23.89° C | 64% | 1004.6 hPa | 0 mm | - | 0 W/m² | - |
| 1777945299 | 24.44° C | 64% | 1004.5 hPa | 0 mm | - | 0 W/m² | - |
| 1777944996 | 24.44° C | 64% | 1004.5 hPa | 0 mm | - | 0 W/m² | - |
| 1777944693 | 24.44° C | 63% | 1004.5 hPa | 0 mm | - | 0 W/m² | - |
| 1777944392 | 24.44° C | 63% | 1004.6 hPa | 0 mm | - | 0 W/m² | - |
| 1777944088 | 24.44° C | 63% | 1004.4 hPa | 0 mm | - | 0 W/m² | - |
| 1777943784 | 24.44° C | 63% | 1004.6 hPa | 0 mm | - | 1 W/m² | - |
| 1777943481 | 24.44° C | 62% | 1004.5 hPa | 0 mm | - | 2 W/m² | - |
| 1777943176 | 24.44° C | 62% | 1004.5 hPa | 0 mm | - | 3 W/m² | - |
| 1777942874 | 24.44° C | 62% | 1004.6 hPa | 0 mm | - | 6 W/m² | - |
| 1777942569 | 24.44° C | 62% | 1004.7 hPa | 0 mm | - | 9 W/m² | - |
| 1777942267 | 25° C | 61% | 1004.6 hPa | 0 mm | - | 13 W/m² | - |
| 1777941964 | 25° C | 61% | 1004.3 hPa | 0 mm | - | 21 W/m² | - |
| 1777941661 | 25° C | 61% | 1004.3 hPa | 0 mm | - | 30 W/m² | - |
* Rain latest hour (hover to see other rain measurements)
** Current wind speed in m/s (hover to see current wind gust speed)